Dewpoint
36 38 38 39 39 41 42 44 45 46 47 46 46 46 46 45 46 45 45 45 46 46 47 48 49 49 49 50 51 51 51 51 51 51 51 51 51 50 50 50 49 49 48 48 47 47 46 46 45 45 46 43 41 40 39 38 36 35 34 35 36 35 33 34 36 25 22 21 20 20 21 21 23 25 25 25 24 25 29 30 30 30 31 33 35
36 37 37 38 39 39 39 40 43 44 45 46 46 46 46 46 46 45 45 45 46 46 46 47 47 48 49 49 50 50 51 51 51 51 51 50 50 50 50 49 49 49 49 48 48 48 47 46 46 46 46 45 43 41 40 38 35 35 34 35 35 33 33 35 31 25 20 21 22 21 20 21 21 24 24 23 21 24 25 25 26 29 29 29 30
35 35 36 37 38 38 38 39 41 43 44 45 45 46 45 45 45 45 45 45 45 46 46 46 47 47 48 49 49 49 50 50 50 50 50 50 50 50 50 49 49 49 49 48 48 48 47 47 47 46 46 45 44 43 42 41 39 36 35 34 34 32 31 30 28 25 21 19 21 20 19 19 20 23 24 21 21 22 22 23 23 23 26 27 27
34 34 35 36 37 37 38 38 39 41 42 43 44 45 45 45 45 45 45 45 45 45 45 45 45 46 46 47 48 48 49 49 49 50 50 50 50 49 49 49 49 49 49 48 48 48 47 47 47 46 46 45 43 42 41 41 40 39 39 39 39 35 33 30 30 26 21 20 20 19 20 18 19 23 24 20 18 20 21 21 21 21 22 24 25
33 33 33 34 35 36 37 37 37 38 40 41 43 44 44 45 45 45 45 44 44 44 44 44 45 45 45 46 46 46 47 47 48 48 49 49 49 49 49 49 49 49 49 49 46 48 47 47 47 46 45 44 43 41 40 39 38 38 38 38 38 37 35 34 34 29 24 23 21 21 19 18 22 22 20 16 16 17 17 17 19 20 19 19 22
32 32 32 33 33 34 36 36 36 37 38 39 40 41 42 43 44 44 45 44 43 43 44 43 44 44 44 45 45 45 46 46 46 47 47 47 48 48 48 48 48 48 48 48 48 48 48 47 47 45 44 43 43 41 40 38 38 38 37 38 37 36 35 34 33 31 30 27 23 24 20 20 23 22 19 15 14 14 13 14 15 16 17 17 18
31 32 31 32 32 33 34 35 36 37 37 38 38 39 40 40 42 43 44 44 43 42 42 42 42 43 43 44 44 44 44 44 45 45 46 46 47 47 47 47 47 48 48 48 48 48 47 47 46 45 44 43 43 42 40 39 38 37 38 37 36 35 34 33 32 31 30 27 27 26 22 22 22 22 20 17 15 15 16 16 16 13 14 15 16
31 31 31 31 32 32 32 33 34 35 35 35 35 35 37 38 39 40 40 42 41 41 40 41 41 41 42 42 42 42 42 42 43 44 45 45 45 45 46 46 46 46 46 46 47 47 47 46 46 45 44 43 43 42 40 39 38 38 38 37 35 35 34 33 32 31 29 27 26 24 24 22 24 24 22 21 20 21 18 16 14 11 11 11 14
30 31 31 31 32 32 31 31 31 32 32 33 34 35 35 36 37 37 38 39 40 39 40 40 39 39 39 39 39 39 40 40 41 41 42 43 44 44 44 44 43 43 43 44 44 44 45 45 44 44 42 40 40 40 39 39 39 38 37 36 35 35 34 33 32 30 28 27 26 26 24 22 22 21 20 20 18 16 15 12 10 8 7 7 7
30 30 31 32 31 31 31 30 31 31 32 33 34 34 35 35 36 37 38 38 38 38 38 38 38 38 38 37 37 38 39 40 39 39 40 42 42 43 42 41 41 41 41 41 41 42 42 42 43 40 39 38 38 38 38 37 37 39 38 37 36 35 34 33 31 30 29 27 25 24 23 22 22 21 20 20 21 20 20 18 9 6 5 3 3
30 30 31 31 31 30 31 31 31 32 32 32 32 33 33 33 34 36 37 37 38 38 38 38 38 38 38 38 37 37 38 39 39 40 41 41 41 40 40 40 40 40 40 41 41 40 40 41 41 39 38 37 38 37 38 37 37 37 37 36 36 37 35 33 32 31 30 28 27 25 24 23 23 23 23 23 22 20 19 15 8 5 2 1 -0
30 30 31 30 30 30 30 30 31 31 31 32 32 32 32 32 34 36 36 36 37 37 37 38 38 37 38 38 38 37 37 37 39 40 40 41 40 39 39 39 39 39 40 40 40 40 39 39 39 40 39 39 39 38 37 37 37 36 37 36 36 36 36 36 34 32 31 30 27 26 26 25 24 24 23 23 22 21 20 13 10 6 2 0 -1
30 30 30 29 29 29 29 30 30 30 30 31 31 31 32 33 34 35 36 36 36 36 37 37 37 37 37 37 37 37 37 38 39 40 40 40 40 39 39 39 39 39 39 39 39 39 39 39 39 39 39 36 37 38 38 37 36 36 36 36 35 36 36 36 35 35 34 32 29 27 28 27 24 24 24 23 24 20 20 16 10 4 2 -1 -4
30 30 29 29 29 29 28 29 29 29 29 30 30 31 32 33 34 35 35 35 36 36 36 36 36 36 37 37 37 37 37 37 39 39 39 39 40 40 38 39 38 38 38 39 39 39 39 39 39 38 38 37 37 38 37 37 37 36 36 36 36 35 35 36 35 34 34 34 32 30 29 28 26 25 24 25 22 21 20 19 12 4 1 -1 -7
30 30 29 29 29 29 29 28 29 29 29 28 29 30 31 32 33 33 35 35 35 36 36 36 36 35 35 36 36 36 37 37 38 39 39 39 40 39 38 38 38 38 38 38 38 38 38 39 39 39 38 37 37 37 37 37 36 36 36 36 36 36 36 36 35 35 34 34 34 33 31 30 29 27 26 26 24 24 22 20 8 3 -5 -8 -6
30 29 29 29 29 29 29 29 29 28 28 29 31 31 32 33 32 32 34 35 35 35 35 35 35 35 34 34 35 35 35 37 37 38 39 39 39 37 37 37 37 37 37 37 37 38 38 38 38 38 37 37 36 36 37 37 36 36 36 35 35 35 35 35 35 35 34 34 33 32 31 30 30 28 27 27 26 25 17 10 5 3 1 -0 -2
29 29 30 29 30 30 30 30 30 30 29 30 31 32 33 33 33 33 34 34 35 35 35 35 35 35 36 36 36 36 36 37 37 37 38 39 39 36 36 36 36 36 36 36 37 37 37 37 37 37 37 36 36 37 37 36 36 35 35 35 35 35 35 34 34 35 34 34 33 33 31 30 29 28 27 26 25 24 15 11 9 2 4 1 0
29 29 30 30 30 30 30 30 31 31 31 32 32 33 33 34 34 34 34 34 34 35 35 35 35 35 35 35 36 36 36 36 37 37 37 38 37 36 36 36 35 35 36 35 36 36 36 34 35 37 36 36 36 37 37 36 36 35 35 34 34 33 34 33 33 33 33 32 32 32 30 29 29 28 28 27 24 22 16 10 7 2 6 5 -2
29 29 30 30 30 30 30 30 31 32 32 33 33 33 34 34 34 34 35 35 35 35 35 35 35 35 35 36 35 35 36 35 36 37 37 37 36 36 36 35 35 35 35 35 34 35 35 34 34 35 36 36 36 37 37 35 35 35 34 34 33 33 34 33 32 31 31 30 30 30 30 29 29 29 28 27 25 21 11 8 4 5 6 6 1
30 30 30 30 29 29 30 30 31 32 32 33 34 34 34 34 34 34 34 35 35 35 35 35 35 35 34 35 35 35 35 35 34 36 36 37 37 36 35 35 34 34 34 34 34 33 34 34 34 35 37 37 37 37 37 36 35 35 35 34 33 33 34 32 32 32 31 30 29 29 29 29 29 28 27 25 22 17 9 6 3 5 10 6 3
29 29 29 29 29 29 29 30 30 30 32 33 33 34 34 34 34 34 34 34 34 34 34 34 34 34 34 34 34 34 35 34 34 35 36 36 37 36 35 35 35 34 34 33 34 34 33 33 33 34 36 36 36 37 37 37 35 35 35 34 34 34 33 32 32 31 30 30 29 29 28 28 27 27 26 23 19 13 10 12 4 5 8 7 2
29 29 29 29 29 29 29 29 29 30 30 31 32 32 33 34 34 34 34 33 33 33 33 33 33 33 33 33 33 34 33 33 34 34 35 36 36 37 35 34 34 34 34 33 33 33 33 33 33 33 35 36 36 36 37 37 36 34 35 35 35 35 33 32 32 31 30 29 28 28 27 26 25 25 24 21 18 14 8 5 5 3 5 3 2
29 29 29 29 29 29 29 29 29 29 29 29 31 31 32 33 33 33 33 33 33 33 33 33 33 33 33 33 33 33 33 33 33 33 34 35 36 36 36 35 36 34 34 33 33 33 32 33 33 33 34 34 35 36 36 37 36 35 35 36 35 34 32 31 30 29 28 28 28 27 26 25 24 23 23 20 16 12 8 4 3 3 4 5 10
28 28 28 28 28 28 28 28 29 29 29 29 30 31 31 32 33 33 33 33 33 32 32 32 32 32 32 31 32 32 32 32 32 32 33 34 35 36 37 37 36 34 34 34 33 33 32 32 32 33 33 34 35 35 36 35 35 35 35 35 34 32 30 29 28 28 27 26 25 25 24 23 23 22 22 21 17 13 7 5 5 7 7 8 8
28 28 28 28 28 28 28 28 28 28 28 29 30 31 32 32 32 32 33 32 32 32 32 32 32 32 31 31 31 31 32 32 32 32 32 33 34 35 36 36 37 36 34 33 32 32 32 32 32 32 33 33 34 35 35 34 35 35 34 34 31 30 28 28 27 26 25 25 24 24 23 23 23 22 22 19 15 12 10 9 9 9 10 8 7
27 27 27 27 27 27 27 26 27 27 28 29 30 32 32 32 32 32 32 32 32 32 32 32 31 31 31 30 30 31 31 31 32 32 32 32 32 33 35 35 34 35 34 33 32 32 32 32 32 32 32 33 33 33 33 33 34 33 33 32 30 29 28 27 26 26 25 25 24 23 23 23 22 22 20 16 12 9 9 7 6 5 7 5 4
26 26 26 26 26 26 27 27 27 27 27 28 28 30 32 32 32 32 32 32 32 32 32 31 31 31 31 31 30 30 30 31 31 31 32 32 32 31 32 33 34 33 33 32 32 32 32 32 32 32 32 32 32 32 32 32 33 32 31 30 29 28 28 27 26 26 25 25 24 24 23 22 21 19 16 13 11 9 9 7 5 5 6 6 3
26 25 25 26 26 26 27 27 28 28 29 29 29 30 31 31 32 32 31 32 31 31 31 31 31 30 30 30 30 30 30 30 30 31 31 32 32 32 32 32 33 33 33 32 32 31 31 31 31 32 31 31 32 32 32 32 31 30 30 29 29 28 28 28 27 26 26 26 25 23 20 19 18 18 16 14 11 9 8 7 5 5 5 4 2
24 24 25 25 26 26 27 27 28 29 30 30 30 31 31 31 31 31 31 31 31 31 31 31 31 31 31 30 30 29 29 30 30 31 31 32 31 31 32 32 33 33 32 32 30 29 29 29 29 29 29 29 30 30 29 30 29 29 28 27 27 27 27 28 27 26 26 25 22 20 19 18 18 17 15 13 10 8 8 6 7 4 5 4 2
24 24 24 25 25 26 26 26 27 28 29 30 30 30 31 30 32 31 30 31 31 32 32 31 31 31 31 31 31 30 29 30 31 32 32 32 33 32 32 32 33 32 32 32 30 28 28 27 28 27 28 28 28 28 28 28 27 27 26 26 26 26 26 26 26 25 25 23 21 20 18 18 17 15 13 11 8 7 7 8 6 5 3 2 2
25 24 24 25 25 26 26 27 27 27 28 30 30 30 30 31 32 32 32 31 31 32 32 32 32 32 31 30 31 32 31 31 32 32 32 32 33 33 33 33 33 33 33 31 28 27 26 26 26 27 27 27 27 27 27 27 26 26 25 25 25 24 24 24 24 24 23 22 20 19 18 17 15 14 12 10 8 6 6 7 6 5 3 3 3
25 25 25 25 25 26 26 27 27 28 28 29 30 30 30 30 31 32 32 31 31 32 32 32 32 32 32 31 30 30 31 32 32 32 32 32 32 32 33 33 34 33 33 31 28 27 26 26 25 26 26 26 27 27 27 26 26 26 25 24 24 24 24 23 24 23 22 20 19 18 17 16 15 13 12 10 8 6 5 5 4 4 4 4 4
26 25 25 25 26 26 26 26 27 27 28 28 29 30 29 29 29 29 31 32 32 32 32 32 32 32 32 32 31 30 30 31 32 32 32 32 32 32 32 33 34 33 33 30 28 27 26 26 25 25 26 26 26 27 27 26 26 26 25 24 23 23 23 23 24 23 21 20 18 17 16 15 14 13 12 9 7 5 5 5 4 4 4 3 4
25 25 25 25 25 25 26 26 26 26 27 28 29 29 29 29 29 29 29 29 31 31 32 32 32 32 32 32 32 31 31 31 31 31 31 31 32 32 32 32 33 34 32 29 28 27 26 26 25 25 25 26 26 27 27 27 26 26 25 25 24 23 23 23 22 21 20 19 17 16 15 14 13 11 10 9 7 6 5 5 4 3 3 3 3
24 26 25 25 25 25 25 25 25 25 26 26 28 29 29 29 29 29 29 28 28 28 29 31 31 32 31 32 32 32 31 31 31 31 31 31 32 32 33 32 31 32 32 30 28 28 26 26 26 26 25 25 26 26 26 27 26 26 25 25 25 24 23 22 21 21 19 18 16 15 14 13 13 12 10 8 7 5 5 5 4 4 4 4 4
25 25 25 25 24 23 24 24 24 25 25 26 26 27 28 29 29 29 29 29 29 28 29 30 30 31 31 31 31 32 32 31 31 31 31 31 32 32 30 30 30 31 30 30 28 28 27 26 26 26 26 26 26 26 26 27 27 27 26 25 25 24 23 21 21 20 20 19 17 16 15 13 12 12 11 10 9 7 5 5 4 5 5 4 4
25 25 25 25 25 24 24 24 24 25 25 25 26 25 26 28 29 29 29 29 29 29 28 29 29 30 30 31 31 31 31 31 31 31 31 31 32 32 30 30 30 30 30 30 29 28 27 27 26 26 26 26 26 26 26 27 27 27 27 27 26 25 24 22 21 21 20 19 18 17 15 14 13 12 11 9 8 7 6 6 6 5 5 6 5
26 26 26 25 25 24 24 24 24 25 26 25 25 25 26 27 28 28 28 28 28 28 28 28 28 28 28 29 31 30 31 31 31 30 30 31 31 31 30 30 30 30 30 30 29 29 28 27 27 26 26 26 26 26 26 26 27 27 27 27 26 25 25 23 23 21 21 19 19 18 16 15 13 12 11 10 9 8 7 7 6 5 5 6 5
24 25 26 26 26 26 25 25 25 25 25 25 25 26 26 27 28 28 28 28 28 28 28 28 28 28 28 29 29 30 30 30 30 29 29 30 30 30 30 30 30 29 29 30 30 29 29 28 27 27 27 26 26 26 26 26 26 26 27 27 27 26 24 23 22 21 21 20 19 18 17 15 14 12 11 10 10 9 8 8 7 6 5 4 4
24 23 25 26 25 26 25 25 25 25 25 25 25 26 27 27 28 28 28 28 28 28 28 28 28 28 28 29 29 29 29 29 29 29 29 29 29 30 30 30 30 29 29 29 29 29 29 28 28 27 27 27 26 26 26 26 26 26 26 26 26 26 25 23 22 22 21 20 20 19 18 17 15 14 12 11 10 10 9 8 7 7 6 5 5
24 24 24 26 26 25 25 25 25 25 25 26 26 26 27 27 28 28 28 28 28 28 28 28 28 28 29 29 29 29 29 28 29 29 29 29 29 29 29 29 29 29 29 29 29 29 29 28 28 28 27 27 26 26 26 26 26 26 26 26 26 26 25 24 23 22 22 21 20 19 18 17 16 14 12 12 12 11 10 9 8 7 7 7 7
24 23 24 24 26 25 25 25 25 26 25 25 25 25 26 26 27 28 28 28 28 28 27 27 28 28 28 28 29 29 29 28 29 29 29 29 29 29 29 29 29 29 29 29 29 29 29 29 28 28 27 27 26 26 26 26 26 25 25 25 25 25 25 24 24 23 22 21 21 20 19 17 16 15 14 14 11 11 10 10 9 8 7 7 6
24 24 23 23 23 24 24 24 24 24 24 24 25 25 25 25 25 27 28 28 28 28 27 27 27 28 28 28 28 29 29 28 26 28 28 29 29 29 29 29 29 29 29 29 29 29 29 29 29 28 28 27 27 26 26 25 25 25 25 25 25 25 25 25 25 24 23 22 21 21 19 18 17 15 14 13 12 11 11 11 10 9 8 7 6
25 24 24 24 23 23 23 23 24 24 23 25 25 25 26 25 25 26 27 27 28 28 28 27 27 27 27 27 28 28 28 28 28 28 28 28 29 29 29 29 29 29 29 29 29 29 29 29 29 29 29 28 28 27 27 26 26 26 25 25 25 25 25 25 25 25 24 22 22 21 20 19 17 16 15 14 13 12 12 11 10 9 8 8 7
25 25 25 24 23 22 22 23 24 24 25 24 23 23 25 26 27 27 27 27 28 28 28 27 27 27 27 27 27 27 28 28 28 28 28 28 28 29 29 29 29 29 29 29 29 29 29 29 29 29 29 29 29 28 27 26 27 27 26 26 25 25 25 25 25 25 25 24 22 21 20 19 18 17 16 15 14 13 12 12 11 9 9 8 8
27 27 27 27 27 26 26 24 25 25 26 27 27 27 27 27 27 27 28 28 28 28 28 28 28 28 27 27 27 27 27 27 28 28 28 28 28 28 29 29 29 29 29 29 29 29 29 29 29 29 30 30 30 29 28 28 27 27 27 27 26 26 26 26 26 25 25 25 23 22 21 20 19 18 17 16 14 14 13 13 12 11 10 9 9
27 27 27 28 28 28 28 28 27 27 27 27 28 28 28 28 28 28 28 28 28 28 28 28 28 28 28 28 27 27 27 27 27 27 28 28 28 29 29 29 29 29 29 29 29 29 29 29 29 30 30 31 31 30 30 29 28 28 27 26 26 26 27 27 26 26 25 25 25 24 23 21 21 21 19 18 16 15 14 13 12 12 11 10 9
26 26 26 27 27 28 28 28 28 27 28 28 28 28 28 28 28 28 28 28 28 28 28 29 29 28 28 28 28 28 27 27 27 27 27 28 28 28 29 29 29 29 29 29 30 29 29 29 29 29 30 30 31 31 31 30 29 29 28 28 27 27 27 26 27 27 26 25 25 25 25 24 23 22 21 20 18 16 15 14 13 12 12 11 10
24 25 25 26 26 27 27 27 28 28 28 28 28 28 28 28 28 28 29 29 29 29 29 29 29 29 29 29 29 29 28 28 27 27 27 27 28 28 28 28 28 29 29 29 29 30 30 29 29 29 29 29 30 30 31 31 30 30 30 29 29 28 27 27 27 27 27 27 26 26 26 25 25 24 23 21 19 18 16 16 15 13 12 12 11
21 23 24 25 25 25 26 27 27 27 28 28 28 28 28 28 28 28 28 29 29 29 29 29 29 29 29 29 29 30 29 29 28 28 28 28 28 28 28 28 28 28 28 28 29 29 30 30 30 29 29 29 29 29 30 30 30 30 30 30 28 28 27 27 27 27 27 27 27 27 26 26 26 26 25 23 22 20 19 18 17 15 14 13 12
16 17 19 19 19 19 19 19 20 21 23 25 26 27 28 28 28 28 28 28 28 28 29 29 29 29 29 30 30 30 30 30 30 29 28 28 28 28 28 28 28 28 28 28 28 29 29 29 29 29 29 29 29 29 29 29 30 30 30 29 29 28 27 27 27 27 27 27 28 27 26 26 26 26 26 25 23 22 20 19 18 16 15 14 13